Regional Weather Roundup
Issued by NWS

Home | Current Version | Previous Version | Graphics & Text | Print | Product List | Glossary Off
Versions: 1 2 3 4 5 6 7 8 9 10 11 12 13 14 15 16 17 18 19 20 21 22 23 24 25 26 27 28 29 30 31 32 33 34 35 36 37 38 39 40 41 42 43 44 45 46 47 48 49 50

000
ASUS43 KFSD 181610
RWRSD

WEATHER ROUNDUP FOR SOUTH DAKOTA
NATIONAL WEATHER SERVICE SIOUX FALLS SD
1000 AM CST THU JAN 18 2018

NOTE: "FAIR" INDICATES FEW OR NO CLOUDS BELOW 12,000 FEET WITH NO
SIGNIFICANT WEATHER AND/OR OBSTRUCTIONS TO VISIBILITY.


SDZ001>005-009-010-012>017-181700-
NORTHWEST AND NORTH CENTRAL SOUTH DAKOTA

CITY           SKY/WX    TMP DP  RH WIND       PRES   REMARKS
BUFFALO          N/A     38  23  55 W9        29.77S
FAITH            N/A     36  23  59 W13       29.85S
MOBRIDGE       CLOUDY    24  20  84 SE3       29.81S
$$

SDZ012>016-024>037-041>051-057-063-072>074-181700-
SOUTHWEST AND SOUTH CENTRAL SOUTH DAKOTA

CITY           SKY/WX    TMP DP  RH WIND       PRES   REMARKS
RAPID CTY ARPT CLOUDY    38  20  48 CALM      29.88F
PIERRE         CLOUDY    28  22  78 SW9       29.87F WCI  19
CUSTER         CLOUDY    40  11  30 SW3       29.95S
ELLSWORTH AFB  CLOUDY    41  17  37 SW7       29.87F
PHILIP         CLOUDY    31  24  75 W8        29.90S WCI  23
PINE RIDGE     CLOUDY    39  25  57 SW9       29.97S
SPEARFISH        N/A     46  14  27 W8        29.89R
WINNER         FAIR      37  24  59 SW7       29.91S
$$

SDZ004>011-016>023-039-040-181700-
NORTHEAST SOUTH DAKOTA

CITY           SKY/WX    TMP DP  RH WIND       PRES   REMARKS
ABERDEEN       PTSUNNY   23  19  85 S7        29.86S WCI  15
WATERTOWN      CLOUDY    27  22  81 S7        29.84F WCI  19
BROOKINGS      CLOUDY    28  21  75 S7        29.90R WCI  21
SISSETON         N/A     39  23  52 W16       29.81R
$$

SDZ017-020-022-023-036>040-048>070-181700-
SOUTHEAST SOUTH DAKOTA

CITY           SKY/WX    TMP DP  RH WIND       PRES   REMARKS
SIOUX FALLS    CLOUDY    27  21  78 S9        29.93F WCI  18
HURON          PTSUNNY   24  19  81 S5        29.90R WCI  18
CHAMBERLAIN    CLOUDY    29  25  84 CALM      29.91S
MITCHELL       MOSUNNY   24  19  81 S6        29.93S WCI  17
YANKTON        CLOUDY    29  21  72 S3        29.96S
$$

ABBREVIATIONS USED IN REMARKS
   TC - TEMPERATURE IN CELSIUS
  WCI - WIND CHILL INDEX
   HX - HEAT INDEX
  VSB - VISIBILITY





USA.gov is the U.S. government's official web portal to all federal, state and local government web resources and services.